Regional Weather Roundup
Issued by NWS Sterling, VA

Home | Current Version | Previous Version | Graphics & Text | Print | Product List | Glossary On
Versions: 1 2 3 4 5 6 7 8 9 10 11 12 13 14 15 16 17 18 19 20 21 22 23 24 25 26 27 28 29 30 31 32 33 34 35 36 37 38 39 40 41 42 43 44 45 46 47 48 49 50
145
ASUS41 KLWX 242310
RWRLWX

REGIONAL WEATHER ROUNDUP
NATIONAL WEATHER SERVICE BALTIMORE MD/WASHINGTON DC
700 PM EDT FRI MAR 24 2017

Note: "FAIR" indicates few or no clouds below 12,000 feet
with no significant weather and/or obstructions to visibility.
 TC=TEMPERATURE CELSIUS

 * =Non NWS site. Station does not report precipitation (e.g. rain,
    snow, etc.), thunder, or fog.

DCZ001-MDZ009-015-VAZ040>042-051-053>054-250000-
WASHINGTON METRO

CITY           SKY/WX    TMP DP  RH WIND       PRES   REMARKS
WASHINGTON NAT CLOUDY    61  39  44 S10       30.18F
DULLES         CLOUDY    60  37  42 S12G22    30.16F
ANDREWS AFB    CLOUDY    61  38  42 SW13      30.16F
FT BELVOIR     PTCLDY    63  38  40 VRB3      30.18F
QUANTICO       PTCLDY    57  45  64 SW12      30.20F
COLLEGE PARK*  CLOUDY    59  36  41 S7        30.17F
LEESBURG*      CLOUDY    63  43  48 SW10      30.16F
MANASSAS*      CLOUDY    62  40  44 S7        30.18F

$$

MDZ006>007-011-014-250000-
BALTIMORE METRO

CITY           SKY/WX    TMP DP  RH WIND       PRES   REMARKS
BWI AIRPORT    CLOUDY    60  37  42 SW14G21   30.15F
MD SCIENCE CTR   N/A     61  34  36 MISG      30.15F
MARTIN STATE   MOCLDY    52  43  71 SE5       30.17F
ANNAPOLIS      CLOUDY    63  38  39 SW9G18    30.17F
FORT MEADE*    CLOUDY    59  36  41 SW10G18   30.19S

$$

MDZ012-015-019>023-250000-
MARYLAND EASTERN SHORE

CITY           SKY/WX    TMP DP  RH WIND       PRES   REMARKS
OCEAN CITY     PTCLDY    50  42  74 SW15G25   30.24F
SALISBURY      CLOUDY    59  40  49 S13       30.22F
BAY BRIDGE AP* CLOUDY    57  37  47 S9        30.17F
CAMBRIDGE*     CLEAR     55  41  58 VRB7G13   30.20F
EASTON*        MOCLDY    59  36  41 S9        30.22F

$$

MDZ017>025-250000-
SOUTHERN MARYLAND

CITY           SKY/WX    TMP DP  RH WIND       PRES   REMARKS
PATUXENT RIVER CLOUDY    64  45  49 SW9       30.20F
ST INIGOES     CLOUDY    63  43  48 SW14      30.20F
LEONARDTOWN*   CLOUDY    63  39  42 SW9       30.21F

$$

MDZ003>005-250000-
NORTH CENTRAL MARYLAND

CITY           SKY/WX    TMP DP  RH WIND       PRES   REMARKS
FREDERICK*     CLEAR     61  43  51 SW12G21   30.17F
HAGERSTOWN APT CLOUDY    60  42  51 S10       30.11F
WESTMINSTER*   CLOUDY    57  39  51 S10G16    30.14S

$$

MDZ501>502-250000-
WESTERN MARYLAND

CITY           SKY/WX    TMP DP  RH WIND       PRES   REMARKS
OAKLAND*       CLEAR     63  46  55 SW9G21    30.17S
CUMBERLAND*    CLOUDY    77  48  36 W13G21    30.12R

$$

VAZ025>031-250000-
SHENANDOAH VALLEY

CITY           SKY/WX    TMP DP  RH WIND       PRES   REMARKS
WINCHESTER*    CLOUDY    61  39  44 S8        30.13F
FRONT ROYAL*     N/A    N/A N/A N/A MISG        N/A
LURAY*         CLOUDY    68  43  40 SW8       30.16S
NEW MARKET*    PTCLDY    67  40  37 SW8G18    30.15S
STAUNTON*      CLEAR     65  41  41 S7        30.21S
WAYNESBORO*    CLEAR     64  43  46 S8G16     30.21S

$$

WVZ021-048>050-054>055-250000-
EASTERN WEST VIRGINIA PANHANDLE

CITY           SKY/WX    TMP DP  RH WIND       PRES   REMARKS
MARTINSBURG    CLOUDY    62  40  44 S9        30.11F
PETERSBURG*    PTCLDY    74  52  45 W6        30.12R

$$

VAZ036>039-050-250000-
CENTRAL FOOTHILLS

CITY           SKY/WX    TMP DP  RH WIND       PRES   REMARKS
CHARLOTTESVILL CLEAR     68  44  42 S14       30.21S
CULPEPER*      CLOUDY    66  45  45 S8        30.19F
ORANGE*        CLEAR     64  45  48 S12G17    30.22S
GORDONSVILLE*  CLEAR     66  46  48 SW13G22   30.20S
WARRENTON*     CLOUDY    64  37  35 S6        30.18F

$$

VAZ055>057-250000-
NORTH AND CENTRAL PIEDMONT

CITY           SKY/WX    TMP DP  RH WIND       PRES   REMARKS
FREDERICKSBRG* PTCLDY    67  46  47 SW12G17   30.19F
STAFFORD*      CLOUDY    65  44  46 S8        30.23F

$$

NCZ024-NYZ072-PAZ021-071-VAZ022-071-250000-
OTHER REGIONAL OBSERVATIONS

CITY           SKY/WX    TMP DP  RH WIND       PRES   REMARKS
NEW YORK CITY  PTCLDY    56  34  43 MISG      30.13F
PHILADELPHIA   CLOUDY    56  32  40 SW13      30.17S
PITTSBURGH     PTCLDY    73  51  46 SW15G22   30.06R
ROANOKE        PTCLDY    68  45  43 S12       30.26S
RICHMOND       CLOUDY    67  47  48 SW15G23   30.24F
RALEIGH        PTCLDY    67  46  47 SW15      30.33F

$$

ANZ530>537-250000-
MARINE OBSERVATIONS

STATION/POSITION TIME  TEMP    WIND        PRES
                       AIR SEA DIR/SP/G
                 (UTC) (F)     (DEG/KT/KT) (MB)
THOMAS PT LIGHT  2300   49 44  180/ 14/ 14   N/A
BALT KEY BRIDGE  2248   60     220/  7/  9 1021.2F
COVE POINT       2248          220/ 13/ 18 1023.0F
LEWISETTA        2248   66 48  240/ 12/ 18 1022.8F
SOLOMONS ISLAND  2248   62 45  220/ 11/ 16   N/A
PINEY POINT      2248          220/  8/  8   N/A

$$





USA.gov is the U.S. government's official web portal to all federal, state and local government web resources and services.